Location: Breux
(46.3269°N, 3.2993°E)
Time: 02:24:22
(UTC+00:00)

Cosmos 2082 Rocket - Pass Details

Date: 09 April 2020
Orbit: 831 x 855 km, 71.0° (Epoch: 29 May)

Event Time Altitude Azimuth Distance (km) Brightness Sun altitude
Exits shadow 22:15:52 51° 11° (N) 1,053 2.8 -31.9°
Drops below altitude 10° 22:20:05 10° 24° (NNE) 2,471 5.0 -32.2°
Sets 22:22:34 0° 26° (NNE) 3,413 5.8 -32.4°
